Weather History for Williams, AZ

Change the Weather History Date:

Thursday, January 24, 2013

  Actual Average (KFLG) Record (KFLG)
Temperature  
Mean Temperature 42 °F 30 °F  
Max Temperature 46 °F 43 °F 61 °F (1982)
Min Temperature 37 °F 18 °F -15 °F (1964)
Degree Days  
Heating Degree Days 24 35  
Month to date heating degree days 846  
Since 1 July heating degree days 3674  
Cooling Degree Days 0 0  
Month to date cooling degree days 0  
Year to date cooling degree days 0  
Moisture  
Dew Point 31 °F    
Average Humidity 73    
Maximum Humidity 100    
Minimum Humidity 43    
Precipitation  
Precipitation 0.01 in 0.06 in 1.11 in (1944)
Month to date precipitation 1.61  
Year to date precipitation 1.61  
Snow  
Snow 0.00 in 0.70 in 19.90 in (1949)
Month to date snowfall 17.5  
Since 1 July snowfall 46.6  
Snow Depth -    
Sea Level Pressure  
Sea Level Pressure 30.37 in    
Wind  
Wind Speed 8 mph (SE)    
Max Wind Speed 15 mph    
Max Gust Speed 22 mph    
Visibility 9 miles    
Events      
T = Trace of Precipitation, MM = Missing Value Source: NWS Daily Summary

Daily Weather History Graph

Daily Weather History Graph

Search for Another Location

Airport:

Trip Planner

Search our weather history database for the weather conditions in past years. The results will help you decide how hot, cold, wet, or windy it might be!

Date:

Astronomy

Jan. 24, 2013 Rise Set
Actual Time 7:33 AM MST 5:49 PM MST
Civil Twilight 7:06 AM MST 6:16 PM MST
Nautical Twilight 6:35 AM MST 6:47 PM MST
Astronomical Twilight 6:05 AM MST 7:17 PM MST
Moon 3:55 PM MST (1/24) 5:32 AM MST (1/24)
Length of Visible Light 11h 10m
Length of Day
10h 15m
Waxing Gibbous, 95% of the Moon is Illuminated
Jan 24
Waxing Gibbous
Jan 26
Full
Feb 3
Last Quarter
Feb 10
New
Feb 17
First Quarter

Hourly Weather History & Observations

Time (MST) Temp. Windchill Dew Point Humidity Pressure Visibility Wind Dir Wind Speed Gust Speed Precip Events Conditions
12:15 AM 39.2 °F 34.2 °F 23.0 °F 52% 30.40 in 10.0 mi SE 6.9 mph - N/A   Mostly Cloudy
12:35 AM 39.2 °F 33.6 °F 23.0 °F 52% 30.40 in 10.0 mi SE 8.1 mph - N/A   Partly Cloudy
12:55 AM 39.2 °F 34.2 °F 23.0 °F 52% 30.40 in 10.0 mi SSE 6.9 mph - N/A   Clear
1:15 AM 39.2 °F 34.2 °F 23.0 °F 52% 30.39 in 10.0 mi SSE 6.9 mph - N/A   Partly Cloudy
1:35 AM 39.2 °F 35.0 °F 23.0 °F 52% 30.38 in 10.0 mi South 5.8 mph - N/A   Clear
1:55 AM 41.0 °F 35.2 °F 24.8 °F 53% 30.39 in 10.0 mi SSE 9.2 mph - N/A   Partly Cloudy
2:15 AM 41.0 °F 35.8 °F 23.0 °F 49% 30.39 in 10.0 mi SSE 8.1 mph - N/A   Partly Cloudy
2:35 AM 44.6 °F 40.2 °F 23.0 °F 43% 30.38 in 10.0 mi South 8.1 mph - N/A   Clear
2:55 AM 44.6 °F 39.2 °F 23.0 °F 43% 30.39 in 10.0 mi South 10.4 mph - N/A   Clear
3:15 AM 44.6 °F 39.7 °F 23.0 °F 43% 30.38 in 10.0 mi SSE 9.2 mph - N/A   Partly Cloudy
3:35 AM 42.8 °F 38.0 °F 23.0 °F 46% 30.38 in 10.0 mi South 8.1 mph - N/A   Mostly Cloudy
3:55 AM 42.8 °F 38.0 °F 23.0 °F 46% 30.38 in 10.0 mi SSE 8.1 mph - N/A   Mostly Cloudy
4:15 AM 44.6 °F 40.2 °F 24.8 °F 46% 30.37 in 10.0 mi SSE 8.1 mph - N/A   Partly Cloudy
4:35 AM 42.8 °F 38.6 °F 23.0 °F 46% 30.36 in 10.0 mi SE 6.9 mph - N/A   Clear
4:55 AM 41.0 °F 35.8 °F 23.0 °F 49% 30.36 in 10.0 mi SE 8.1 mph - N/A   Scattered Clouds
5:15 AM 42.8 °F 38.6 °F 23.0 °F 46% 30.35 in 10.0 mi SE 6.9 mph - N/A   Mostly Cloudy
5:35 AM 41.0 °F 37.1 °F 23.0 °F 49% 30.34 in 10.0 mi SE 5.8 mph - N/A   Mostly Cloudy
5:55 AM 41.0 °F 36.4 °F 23.0 °F 49% 30.35 in 10.0 mi SE 6.9 mph - N/A   Scattered Clouds
6:15 AM 41.0 °F 37.1 °F 23.0 °F 49% 30.35 in 10.0 mi SSE 5.8 mph - N/A   Mostly Cloudy
6:35 AM 41.0 °F 36.4 °F 23.0 °F 49% 30.36 in 10.0 mi SSE 6.9 mph - N/A   Scattered Clouds
6:55 AM 41.0 °F 36.4 °F 23.0 °F 49% 30.36 in 10.0 mi SSE 6.9 mph - N/A   Scattered Clouds
7:15 AM 41.0 °F 36.4 °F 23.0 °F 49% 30.36 in 10.0 mi SSE 6.9 mph - N/A   Partly Cloudy
7:35 AM 42.8 °F 38.6 °F 24.8 °F 49% 30.36 in 10.0 mi SSE 6.9 mph - N/A   Partly Cloudy
7:55 AM 42.8 °F 38.6 °F 24.8 °F 49% 30.36 in 10.0 mi SSE 6.9 mph - N/A   Mostly Cloudy
8:15 AM 44.6 °F 40.7 °F 24.8 °F 46% 30.36 in 10.0 mi SSE 6.9 mph - N/A   Partly Cloudy
8:35 AM 44.6 °F 40.7 °F 24.8 °F 46% 30.37 in 10.0 mi South 6.9 mph - N/A   Clear
8:55 AM 44.6 °F 40.7 °F 24.8 °F 46% 30.37 in 10.0 mi South 6.9 mph - N/A   Clear
9:15 AM 46.4 °F 42.9 °F 24.8 °F 43% 30.38 in 10.0 mi South 6.9 mph - N/A   Scattered Clouds
9:35 AM 46.4 °F 40.1 °F 26.6 °F 46% 30.38 in 10.0 mi South 15.0 mph - N/A   Partly Cloudy
9:55 AM 44.6 °F 38.8 °F 32.0 °F 61% 30.39 in 10.0 mi South 11.5 mph - N/A   Scattered Clouds
10:15 AM 42.8 °F 38.0 °F 32.0 °F 66% 30.41 in 10.0 mi South 8.1 mph - N/A   Mostly Cloudy
10:35 AM 44.6 °F 39.2 °F 32.0 °F 61% 30.40 in 10.0 mi SSE 10.4 mph - N/A   Scattered Clouds
10:55 AM 44.6 °F 39.2 °F 33.8 °F 66% 30.39 in 8.0 mi SE 10.4 mph - N/A   Mostly Cloudy
11:15 AM 44.6 °F 39.7 °F 33.8 °F 66% 30.39 in 9.0 mi SSE 9.2 mph - N/A   Mostly Cloudy
11:35 AM 42.8 °F 37.0 °F 35.6 °F 76% 30.39 in 5.0 mi SSE 10.4 mph - N/A   Overcast
11:55 AM 42.8 °F 36.6 °F 35.6 °F 76% 30.39 in 10.0 mi SSE 11.5 mph 16.1 mph N/A   Overcast
12:15 PM 42.8 °F 36.6 °F 35.6 °F 76% 30.37 in 10.0 mi SE 11.5 mph 18.4 mph N/A   Overcast
12:35 PM 41.0 °F 33.9 °F 35.6 °F 81% 30.36 in 7.0 mi SE 12.7 mph - N/A   Overcast
12:55 PM 41.0 °F 33.1 °F 35.6 °F 81% 30.35 in 10.0 mi SE 15.0 mph 21.9 mph N/A   Mostly Cloudy
1:15 PM 41.0 °F 33.5 °F 37.4 °F 87% 30.34 in 10.0 mi SE 13.8 mph - N/A   Mostly Cloudy
1:35 PM 39.2 °F 30.8 °F 37.4 °F 93% 30.34 in 6.0 mi SE 15.0 mph - N/A   Overcast
1:55 PM 39.2 °F 31.2 °F 37.4 °F 93% 30.34 in 6.0 mi SE 13.8 mph - N/A   Overcast
2:15 PM 39.2 °F 31.6 °F 37.4 °F 93% 30.33 in 4.0 mi SE 12.7 mph - N/A   Overcast
2:35 PM 39.2 °F 33.0 °F 37.4 °F 93% 30.34 in 4.0 mi SE 9.2 mph - N/A   Overcast
2:55 PM 39.2 °F 34.2 °F 37.4 °F 93% 30.34 in 2.5 mi SE 6.9 mph - N/A   Overcast
3:15 PM 39.2 °F 35.0 °F 37.4 °F 93% 30.34 in 4.0 mi SE 5.8 mph - N/A   Overcast
3:35 PM 39.2 °F 34.2 °F 37.4 °F 93% 30.34 in 5.0 mi SE 6.9 mph - 0.01 in   Overcast
3:55 PM 39.2 °F 32.5 °F 37.4 °F 93% 30.34 in 9.0 mi SE 10.4 mph - 0.01 in   Overcast
4:15 PM 39.2 °F 33.6 °F 37.4 °F 93% 30.35 in 9.0 mi SSE 8.1 mph - N/A   Overcast
4:35 PM 39.2 °F 33.6 °F 37.4 °F 93% 30.35 in 4.0 mi SE 8.1 mph - N/A   Overcast
4:55 PM 39.2 °F 33.6 °F 37.4 °F 93% 30.35 in 10.0 mi SE 8.1 mph - N/A   Overcast
5:15 PM 39.2 °F 33.0 °F 37.4 °F 93% 30.35 in 5.0 mi SE 9.2 mph - N/A   Overcast
5:35 PM 39.2 °F 33.0 °F 37.4 °F 93% 30.35 in 9.0 mi SSE 9.2 mph - N/A   Overcast
5:55 PM 39.2 °F 34.2 °F 37.4 °F 93% 30.35 in 2.5 mi SE 6.9 mph - N/A   Overcast
6:15 PM 37.4 °F 32.1 °F 37.4 °F 100% 30.35 in 2.5 mi SE 6.9 mph - N/A   Overcast
6:35 PM 37.4 °F 31.4 °F 35.6 °F 93% 30.35 in 8.0 mi SE 8.1 mph - N/A   Overcast
6:55 PM 37.4 °F 30.3 °F 37.4 °F 100% 30.35 in 10.0 mi SE 10.4 mph - N/A   Overcast
7:15 PM 37.4 °F 31.4 °F 37.4 °F 100% 30.35 in 10.0 mi SE 8.1 mph - N/A   Overcast
7:35 PM 37.4 °F 32.8 °F 35.6 °F 93% 30.36 in 10.0 mi SE 5.8 mph - N/A   Overcast
7:55 PM 37.4 °F 34.9 °F 37.4 °F 100% 30.37 in 10.0 mi SE 3.5 mph - N/A   Overcast
8:15 PM 37.4 °F 32.1 °F 35.6 °F 93% 30.38 in 10.0 mi South 6.9 mph - N/A   Overcast
8:35 PM 37.4 °F 32.8 °F 37.4 °F 100% 30.38 in 10.0 mi SE 5.8 mph - N/A   Overcast
8:55 PM 39.2 °F 37.0 °F 37.4 °F 93% 30.38 in 10.0 mi ESE 3.5 mph - N/A   Overcast
9:15 PM 39.2 °F 35.0 °F 37.4 °F 93% 30.37 in 10.0 mi ESE 5.8 mph - N/A   Overcast
9:35 PM 39.2 °F 35.0 °F 39.2 °F 100% 30.37 in 10.0 mi SE 5.8 mph - N/A   Overcast
9:55 PM 39.2 °F 37.0 °F 37.4 °F 93% 30.38 in 10.0 mi SE 3.5 mph - N/A   Overcast
10:15 PM 37.4 °F 32.1 °F 37.4 °F 100% 30.37 in 10.0 mi SE 6.9 mph - N/A   Mostly Cloudy
10:35 PM 39.2 °F 33.6 °F 39.2 °F 100% 30.37 in 8.0 mi SE 8.1 mph - N/A   Overcast
10:55 PM 39.2 °F 32.5 °F 37.4 °F 93% 30.36 in 6.0 mi SE 10.4 mph - N/A   Overcast
11:15 PM 39.2 °F 33.6 °F 37.4 °F 93% 30.37 in 7.0 mi SSE 8.1 mph - N/A   Overcast
11:35 PM 39.2 °F 37.0 °F 39.2 °F 100% 30.37 in 9.0 mi ESE 3.5 mph - N/A   Overcast
11:55 PM 39.2 °F 35.9 °F 39.2 °F 100% 30.37 in 8.0 mi SE 4.6 mph - N/A   Overcast